Hourly Data Report for October 30, 2013

All times are specified in Local Standard Time (LST). Add 1 hour to adjust for Daylight Saving Time where and when it is observed.

SAINT JOHN A
NEW BRUNSWICK

45°18'58.000" N
65°53'24.000" W
108.80 m
8104901
71609
YSJ

Download Data

Hourly Data (October 2013)
Hourly Data Report for October 30, 2013
Temp Definition
°C
Dew Point Temp Definition
°C
Rel Hum Definition
%
Wind Dir Definition
10's deg

Wind Spd Definition
km/h
Visibility Definition
km
Stn Press Definition
kPa
Hmdx Definition


Wind Chill Definition


Weather Definition


TIME
00:00 Legend Double Dagger -4.2 -5.6 90 35 4 24.1 101.44   -6 LegendNANA
01:00 Legend Double Dagger -5.5 -7.2 88 19 5 24.1 101.41   -8 LegendNANA
02:00 Legend Double Dagger -6.3 -7.0 95 14 3 24.1 101.36   -8 Clear
03:00 Legend Double Dagger -6.1 -6.6 96 9 3 24.1 101.33   -8 LegendNANA
04:00 Legend Double Dagger -6.2 -7.0 94 2 4 24.1 101.29   -8 LegendNANA
05:00 Legend Double Dagger -6.5 -7.2 95 4 4 24.1 101.25   -8 Clear
06:00 Legend Double Dagger -5.5 -6.2 95 2 4 24.1 101.18   -7 LegendNANA
07:00 Legend Double Dagger -6.1 -6.6 96 7 4 24.1 101.19   -8 LegendNANA
08:00 Legend Double Dagger -4.2 -5.0 94 9 2 24.1 101.18   -5 Cloudy
09:00 Legend Double Dagger -1.4 -2.1 95 4 1 24.1 101.14   -2 LegendNANA
10:00 Legend Double Dagger 1.2 -1.4 83 28 8 24.1 101.09     LegendNANA
11:00 Legend Double Dagger 3.1 -1.8 70 29 11 24.1 101.06     Mostly Cloudy
12:00 Legend Double Dagger 4.9 -3.9 53 25 13 24.1 100.97     LegendNANA
13:00 Legend Double Dagger 5.8 -3.0 53 27 10 24.1 100.87     LegendNANA
14:00 Legend Double Dagger 6.4 -2.7 52 27 20 24.1 100.74     Mostly Cloudy
15:00 Legend Double Dagger 7.2 -5.8 39 23 21 24.1 100.71     LegendNANA
16:00 Legend Double Dagger 6.4 -10.9 28 26 16 24.1 100.71     LegendNANA
17:00 Legend Double Dagger 4.2 -9.6 36 23 10 24.1 100.70     Mainly Clear
18:00 Legend Double Dagger 1.9 -8.0 48 24 9 24.1 100.76     LegendNANA
19:00 Legend Double Dagger 1.9 -6.2 55 25 8 24.1 100.80     LegendNANA
20:00 Legend Double Dagger -3.7 -5.3 89 31 4 24.1 100.80   -5 Clear
21:00 Legend Double Dagger -3.3 -5.0 88 20 1 24.1 100.79   -4 LegendNANA
22:00 Legend Double Dagger -4.9 -5.7 94 18 1 24.1 100.84   -5 LegendNANA
23:00 Legend Double Dagger -5.8 -6.6 94 5 3 24.1 100.82   -7 Clear

Notes on Data Quality.

Legend

  • E = Estimated
  • M = Missing
  • NA = Not Available
  • ‡ = Partner data that is not subject to review by the National Climate Archives
Date modified: